This is the latest recevied weather packets stored in our database for station/object YT6PT-8. If no packets are shown the sender has not sent any weather packets the latest 10 day(s).
| Time | Temp. | Humidity | Pressure | Rain* | Wind** | Luminosity | Snow |
|---|---|---|---|---|---|---|---|
| 1787922333 | 28.89° C | 46% | 1009.6 hPa | 0 mm | 2.68 m/s, 0° | - | - |
| 1787922060 | 28.89° C | 46% | 1009.6 hPa | 0 mm | 2.68 m/s, 0° | - | - |
| 1787921751 | 28.89° C | 45% | 1009.8 hPa | 0 mm | 2.68 m/s, 0° | - | - |
| 1787921439 | 28.89° C | 45% | 1009.8 hPa | 0 mm | 2.68 m/s, 0° | - | - |
| 1787921134 | 28.89° C | 46% | 1009.9 hPa | 0 mm | 1.79 m/s, 338° | - | - |
| 1787920834 | 28.89° C | 46% | 1009.9 hPa | 0 mm | 1.79 m/s, 338° | - | - |
| 1787920533 | 28.89° C | 46% | 1009.9 hPa | 0 mm | 3.13 m/s, 338° | - | - |
| 1787920233 | 28.89° C | 46% | 1009.9 hPa | 0 mm | 3.13 m/s, 338° | - | - |
| 1787919933 | 28.89° C | 45% | 1009.8 hPa | 0 mm | 1.79 m/s, 338° | - | - |
| 1787919633 | 28.89° C | 45% | 1009.8 hPa | 0 mm | 1.79 m/s, 338° | - | - |
| 1787919332 | 29.44° C | 45% | 1009.9 hPa | 0 mm | 3.13 m/s, 338° | - | - |
| 1787919054 | 29.44° C | 45% | 1009.9 hPa | 0 mm | 3.13 m/s, 338° | - | - |
| 1787918754 | 29.44° C | 44% | 1009.9 hPa | 0 mm | 1.79 m/s, 0° | - | - |
| 1787918440 | 29.44° C | 44% | 1009.9 hPa | 0 mm | 1.79 m/s, 0° | - | - |
| 1787918133 | 29.44° C | 44% | 1010.1 hPa | 0 mm | 0.89 m/s, 0° | - | - |
| 1787917842 | 29.44° C | 44% | 1010.1 hPa | 0 mm | 0.89 m/s, 0° | - | - |
| 1787917533 | 28.89° C | 44% | 1009.9 hPa | 0 mm | 1.34 m/s, 338° | - | - |
| 1787917233 | 28.89° C | 44% | 1009.9 hPa | 0 mm | 1.34 m/s, 338° | - | - |
| 1787916933 | 29.44° C | 44% | 1009.9 hPa | 0 mm | 1.79 m/s, 0° | - | - |
| 1787916634 | 29.44° C | 44% | 1009.9 hPa | 0 mm | 1.79 m/s, 0° | - | - |
| 1787916332 | 29.44° C | 43% | 1010.1 hPa | 0 mm | 0 m/s | - | - |
| 1787916053 | 29.44° C | 43% | 1010.1 hPa | 0 mm | 0 m/s | - | - |
| 1787915733 | 28.89° C | 45% | 1010.2 hPa | 0 mm | 0.45 m/s, 22° | - | - |
| 1787915433 | 28.89° C | 45% | 1010.2 hPa | 0 mm | 0.45 m/s, 22° | - | - |
| 1787915133 | 28.33° C | 44% | 1010.2 hPa | 0 mm | 0.89 m/s, 338° | - | - |
* Rain latest hour (hover to see other rain measurements)
** Current wind speed in m/s (hover to see current wind gust speed)